Location: Clifton Park
(41.4873°N, 81.8024°W)
Time: 09:43:23
(UTC+00:00)

STARLINK-45 - Pass Details

Date: 21 January 2020
Orbit: 528 x 531 km, 53.0° (Epoch: 19 February)

Event Time Altitude Azimuth Distance (km) Brightness Sun altitude
Exits shadow 10:54:42 66° 234° (SW) 580 3.4 -21.1°
Maximum altitude 10:55:15 89° 318° (NW) 533 3.4 -21.0°
Drops below altitude 10° 10:59:17 10° 52° (NE) 1,776 6.8 -20.2°
Sets 11:01:30 0° 53° (NE) 2,669 7.8 -19.8°
